[[{"header":{"parameterUnit":"m.s-1","parameterCategory":1,"la1":30.2991,"la2":30.254,"lo1":-89.0895,"lo2":-89.0444,"dy":0.0017,"dx":0.0017,"nx":28,"ny":28,"refTime":"2023-08-31T09:00:00:Z","depth":0,"parameterNumber":2,"parameterNumberName":"U-component_of_WINDS"},"data":[0,0,0,0,0,0,0,0,0,0,0,0,0,0,0,0,0,0,0,0,0,0,0,0,0,0,0,0,0,0,0,0,0,0,0,0,0,0,0,0,0,0,0,0,0,0,0,0,0,0,0,0,0,0,0,0,0,0,-1.1603,-1.1603,0,-1.1608,-1.1608,-1.1608,-1.1615,-1.1616,-1.1616,-1.1616,-1.162,-1.162,-1.162,0,0,0,0,0,0,0,0,0,0,0,0,0,-1.1599,-1.1599,-1.1603,-1.1603,-1.1603,-1.1608,-1.1608,-1.1608,-1.1615,-1.1616,-1.1616,-1.1616,-1.162,-1.162,-1.162,0,0,0,0,0,0,0,0,0,0,0,0,0,-1.1602,-1.1599,-1.1603,-1.1608,-1.1608,-1.1608,-1.1608,-1.1608,-1.1615,-1.1616,-1.1616,-1.1616,-1.162,-1.162,-1.162,-1.1615,0,0,-1.162,-1.162,0,0,0,0,0,0,0,0,-1.1601,-1.1602,-1.1607,-1.1607,-1.1608,-1.1611,-1.1608,-1.161,-1.1615,-1.1613,-1.1616,-1.1616,-1.1617,-1.1617,-1.1617,-1.1615,-1.1615,-1.162,-1.162,-1.1619,-1.1619,0,0,0,0,0,0,0,-1.1601,-1.1602,-1.1605,-1.1607,-1.1607,-1.1609,-1.1609,-1.1608,-1.1613,-1.1613,-1.1613,-1.1614,-1.1617,-1.1617,-1.1617,-1.1616,-1.162,-1.1619,-1.1619,-1.1619,-1.1608,-1.1607,0,0,0,0,0,0,-1.1601,-1.1601,-1.1605,-1.1605,-1.1605,-1.1608,-1.1609,-1.161,-1.1613,-1.1614,-1.1614,-1.1614,-1.1617,-1.1617,-1.1618,-1.1611,-1.1619,-1.1619,-1.1619,-1.1608,-1.1608,-1.1607,0,0,0,0,0,0,-1.16,-1.1601,-1.1605,-1.1603,-1.1604,-1.1608,-1.1609,-1.161,-1.161,-1.1614,-1.1615,-1.1613,-1.1617,-1.1618,-1.1615,-1.1611,-1.1619,-1.1619,-1.1608,-1.1608,-1.1607,-1.1599,0,0,0,0,0,0,-1.16,-1.1601,-1.16,-1.1603,-1.1604,-1.1603,-1.1609,-1.161,-1.161,-1.1611,-1.1614,-1.1614,-1.1618,-1.1615,-1.1615,-1.1611,-1.1619,-1.1609,-1.1608,-1.1608,-1.1599,-1.1598,-1.1597,0,0,0,0,0,-1.16,-1.1597,-1.16,-1.16,-1.1603,-1.1603,-1.1603,-1.1607,-1.161,-1.1608,-1.161,-1.1614,-1.1612,-1.1615,-1.1615,-1.1611,-1.1609,-1.1608,-1.1608,-1.16,-1.1598,-1.1597,0,0,0,0,0,0,-1.1594,-1.1598,-1.1601,-1.1599,-1.16,-1.1604,-1.1602,-1.1605,-1.1606,-1.1606,-1.1611,-1.1611,-1.1608,-1.1609,-1.1613,-1.1606,-1.1611,-1.161,-1.1605,-1.1603,-1.1602,-1.1602,-1.1619,0,0,0,0,0,-1.1592,-1.1592,-1.1596,-1.1594,-1.1594,-1.1598,-1.1598,-1.1601,-1.1602,-1.1603,-1.1605,-1.1606,-1.1605,-1.1604,-1.1604,-1.16,-1.1599,-1.1597,-1.1595,-1.1594,-1.1594,-1.1589,-1.1588,-1.1605,-1.1605,-1.1605,0,0,-1.1589,-1.1591,-1.1591,-1.1593,-1.1594,-1.1593,-1.1599,-1.1598,-1.1596,-1.1603,-1.16,-1.1601,-1.1603,-1.1599,-1.1597,-1.16,-1.1589,-1.1594,-1.1593,-1.1593,-1.1589,-1.1587,-1.1585,-1.1605,-1.1605,-1.1605,0,0,-1.1582,-1.1584,-1.1582,-1.1583,-1.1585,-1.1587,-1.1586,-1.1589,-1.159,-1.1587,-1.1591,-1.159,-1.1589,-1.1589,-1.1589,-1.158,-1.1582,-1.1579,-1.1573,-1.1569,-1.1567,-1.1566,-1.1561,-1.156,-1.1579,-1.1579,-1.1579,0,-1.1578,-1.1577,-1.1581,-1.1579,-1.1579,-1.1584,-1.1581,-1.1582,-1.1583,-1.1582,-1.1585,-1.1583,-1.1584,-1.1579,-1.1577,-1.1577,-1.1575,-1.1579,-1.1567,-1.1566,-1.1565,-1.156,-1.1559,-1.1578,-1.1578,-1.1578,-1.1578,0,-1.1571,-1.157,-1.1568,-1.1568,-1.1568,-1.1566,-1.1568,-1.1567,-1.1569,-1.1571,-1.1567,-1.1568,-1.1568,-1.1567,-1.1569,-1.1562,-1.1563,-1.1566,-1.1572,-1.1563,-1.1558,-1.1557,-1.1577,-1.1577,-1.1578,-1.1578,0,0,-1.1561,-1.1563,-1.1562,-1.1561,-1.1562,-1.1561,-1.1558,-1.1557,-1.1556,-1.1556,-1.1553,-1.1551,-1.1553,-1.1553,-1.1555,-1.1552,-1.1542,-1.1555,-1.1555,-1.1552,-1.1532,-1.1529,-1.1527,-1.1544,-1.1544,-1.1544,-1.1531,0,-1.1554,-1.155,-1.1552,-1.1547,-1.1545,-1.1549,-1.1546,-1.1546,-1.1546,-1.1544,-1.1545,-1.1543,-1.1547,-1.1547,-1.1544,-1.1544,-1.1538,-1.1545,-1.154,-1.154,-1.1539,-1.1525,-1.1522,-1.151,-1.153,-1.153,-1.1529,0,-1.1546,-1.1545,-1.154,-1.1539,-1.1538,-1.1536,-1.1534,-1.1532,-1.1531,-1.1532,-1.153,-1.1533,-1.1528,-1.1534,-1.1527,-1.1532,-1.1529,-1.1529,-1.1529,-1.1528,-1.1534,-1.1522,-1.1507,-1.1504,-1.1527,-1.1527,-1.1527,0,-1.1538,-1.1536,-1.1531,-1.1531,-1.1531,-1.1528,-1.1528,-1.1527,-1.1526,-1.1524,-1.1522,-1.152,-1.1518,-1.1516,-1.1517,-1.1521,-1.1509,-1.1515,-1.1509,-1.1509,-1.1506,-1.1506,-1.1489,-1.1506,-1.1506,-1.1506,-1.1506,0,-1.153,-1.1526,-1.1528,-1.1525,-1.152,-1.1522,-1.1517,-1.1517,-1.1516,-1.1512,-1.1515,-1.1512,-1.1514,-1.151,-1.1511,-1.1504,-1.1504,-1.1503,-1.1503,-1.1503,-1.1503,-1.1501,-1.1501,-1.1506,-1.1506,-1.1506,-1.1506,0,-1.1521,-1.1522,-1.1517,-1.1517,-1.1516,-1.1512,-1.1511,-1.1508,-1.1508,-1.1504,-1.1503,-1.1503,-1.1499,-1.1499,-1.1495,-1.1495,-1.1486,-1.1488,-1.1487,-1.1487,-1.148,-1.148,-1.146,-1.1457,-1.1477,-1.1477,-1.1477,0,-1.1516,-1.1512,-1.1511,-1.1508,-1.1508,-1.1504,-1.1502,-1.1503,-1.1501,-1.1498,-1.1495,-1.1491,-1.1487,-1.148,-1.1479,-1.1475,-1.1476,-1.1469,-1.1475,-1.1473,-1.1474,-1.1474,-1.1472,-1.1467,-1.1467,-1.1467,-1.1467,0,-1.1505,-1.1505,-1.1502,-1.1499,-1.1496,-1.1493,-1.1491,-1.1489,-1.1489,-1.1486,-1.1481,-1.1479,-1.1473,-1.1468,-1.1463,-1.1462,-1.1464,-1.1465,-1.1463,-1.1462,-1.146,-1.146,-1.1482,-1.1465,-1.1466,-1.1466,-1.1466,-1.1466,-1.1497,-1.1494,-1.1491,-1.1487,-1.1485,-1.1482,-1.1478,-1.1477,-1.1473,-1.1469,-1.1469,-1.1463,-1.146,-1.1454,-1.1453,-1.1447,-1.145,-1.1447,-1.1446,-1.1445,-1.1444,-1.1462,-1.1447,-1.1447,-1.1447,-1.1447,-1.1447,0,-1.1486,-1.1484,-1.148,-1.1476,-1.1472,-1.1474,-1.147,-1.1467,-1.1462,-1.1459,-1.1455,-1.1448,-1.1442,-1.144,-1.1435,-1.1431,-1.1431,-1.1429,-1.1429,-1.1428,-1.1443,-1.1445,-1.1429,-1.1429,-1.1429,-1.1429,-1.1429,-1.1429,-1.148,-1.1473,-1.1472,-1.1464,-1.1462,-1.1456,-1.1454,-1.145,-1.1448,-1.144,-1.1435,-1.1434,-1.143,-1.1424,-1.1419,-1.1418,-1.1415,-1.1413,-1.1412,-1.1426,-1.1428,-1.1429,-1.1431,-1.1412,-1.1412,-1.1398,-1.1398,-1.1398]},{"header":{"parameterUnit":"m.s-1","parameterCategory":1,"la1":30.2991,"la2":30.254,"lo1":-89.0895,"lo2":-89.0444,"dy":0.0017,"dx":0.0017,"nx":28,"ny":28,"refTime":"2023-08-31T09:00:00:Z","depth":0,"parameterNumber":3,"parameterNumberName":"V-component_of_WINDS"},"data":[0,0,0,0,0,0,0,0,0,0,0,0,0,0,0,0,0,0,0,0,0,0,0,0,0,0,0,0,0,0,0,0,0,0,0,0,0,0,0,0,0,0,0,0,0,0,0,0,0,0,0,0,0,0,0,0,0,0,-0.2167,-0.2166,0,-0.2102,-0.2101,-0.21,-0.2126,-0.2127,-0.2129,-0.2131,-0.2052,-0.2049,-0.2046,0,0,0,0,0,0,0,0,0,0,0,0,0,-0.2303,-0.2301,-0.2167,-0.2166,-0.2166,-0.2102,-0.2101,-0.21,-0.2126,-0.2128,-0.2129,-0.2131,-0.2054,-0.2049,-0.2045,0,0,0,0,0,0,0,0,0,0,0,0,0,-0.2241,-0.23,-0.2167,-0.2171,-0.2171,-0.2102,-0.2101,-0.21,-0.2125,-0.2128,-0.213,-0.2132,-0.2055,-0.205,-0.2045,-0.1965,0,0,-0.2028,-0.2026,0,0,0,0,0,0,0,0,-0.2245,-0.2236,-0.2171,-0.2171,-0.217,-0.2125,-0.212,-0.2054,-0.2125,-0.2142,-0.2131,-0.2133,-0.2074,-0.2067,-0.2049,-0.1961,-0.1958,-0.2028,-0.2025,-0.2022,-0.2021,0,0,0,0,0,0,0,-0.2249,-0.2239,-0.2141,-0.217,-0.2169,-0.2172,-0.2166,-0.2108,-0.2095,-0.2141,-0.2143,-0.2135,-0.2074,-0.2054,-0.2048,-0.1957,-0.2028,-0.2023,-0.202,-0.2018,-0.1797,-0.1795,0,0,0,0,0,0,-0.2255,-0.2243,-0.2143,-0.2139,-0.2214,-0.2168,-0.2161,-0.2137,-0.2096,-0.2092,-0.2133,-0.2136,-0.2062,-0.2054,-0.2045,-0.1948,-0.2023,-0.2018,-0.2015,-0.18,-0.1797,-0.1794,0,0,0,0,0,0,-0.2258,-0.2246,-0.2146,-0.2191,-0.2179,-0.2163,-0.2135,-0.2134,-0.2115,-0.209,-0.2087,-0.2116,-0.2064,-0.2052,-0.1985,-0.1945,-0.2015,-0.201,-0.1803,-0.1799,-0.1795,-0.1753,0,0,0,0,0,0,-0.2262,-0.2247,-0.2219,-0.2191,-0.2176,-0.209,-0.2133,-0.2131,-0.2107,-0.2111,-0.2074,-0.207,-0.2065,-0.1993,-0.198,-0.1939,-0.2006,-0.1807,-0.1801,-0.1797,-0.1758,-0.1748,-0.174,0,0,0,0,0,-0.2267,-0.2208,-0.2218,-0.2206,-0.2142,-0.2088,-0.2079,-0.2078,-0.2104,-0.2074,-0.2058,-0.2071,-0.1952,-0.1986,-0.1971,-0.1928,-0.1809,-0.1803,-0.1797,-0.1762,-0.175,-0.174,0,0,0,0,0,0,-0.2229,-0.2204,-0.2215,-0.2146,-0.2119,-0.2092,-0.2055,-0.2065,-0.2028,-0.2032,-0.2029,-0.202,-0.195,-0.1933,-0.197,-0.1848,-0.1884,-0.1875,-0.1862,-0.1851,-0.1842,-0.1846,-0.2002,0,0,0,0,0,-0.2213,-0.2175,-0.2154,-0.2095,-0.2081,-0.207,-0.2047,-0.2048,-0.2019,-0.2006,-0.1985,-0.1953,-0.1908,-0.1879,-0.1836,-0.1756,-0.1746,-0.1719,-0.171,-0.1703,-0.1694,-0.1647,-0.1634,-0.1774,-0.1774,-0.1774,0,0,-0.2179,-0.2161,-0.2136,-0.2087,-0.2066,-0.2023,-0.206,-0.2013,-0.198,-0.1998,-0.1934,-0.1917,-0.188,-0.1805,-0.1771,-0.1788,-0.1653,-0.1695,-0.1689,-0.1684,-0.1639,-0.1626,-0.1614,-0.177,-0.1771,-0.1771,0,0,-0.2094,-0.2078,-0.2027,-0.2006,-0.1975,-0.1968,-0.1956,-0.1927,-0.1918,-0.1854,-0.1866,-0.1824,-0.1748,-0.1721,-0.1697,-0.1602,-0.1611,-0.1587,-0.1539,-0.1494,-0.1483,-0.1473,-0.1436,-0.1423,-0.1579,-0.1579,-0.1579,0,-0.2055,-0.1994,-0.1998,-0.195,-0.1926,-0.1944,-0.189,-0.1868,-0.1823,-0.1805,-0.1826,-0.173,-0.1706,-0.1624,-0.1601,-0.1582,-0.1565,-0.1591,-0.1485,-0.1475,-0.1465,-0.143,-0.1417,-0.1576,-0.1577,-0.1577,-0.1577,0,-0.1945,-0.1902,-0.1864,-0.1824,-0.1796,-0.1745,-0.1738,-0.1708,-0.1712,-0.1701,-0.1634,-0.1607,-0.1558,-0.1539,-0.1541,-0.1456,-0.1468,-0.1487,-0.1522,-0.1449,-0.1416,-0.1403,-0.1572,-0.1573,-0.1574,-0.1575,0,0,-0.1834,-0.1798,-0.1784,-0.1765,-0.1732,-0.1697,-0.1645,-0.1601,-0.1575,-0.1543,-0.1497,-0.1432,-0.1449,-0.1422,-0.1421,-0.1381,-0.1304,-0.1404,-0.1403,-0.1384,-0.1205,-0.119,-0.1175,-0.1311,-0.1308,-0.1306,-0.1208,0,-0.1746,-0.1659,-0.1661,-0.1578,-0.1537,-0.1553,-0.1507,-0.148,-0.1468,-0.1428,-0.1414,-0.1367,-0.1395,-0.1378,-0.134,-0.1322,-0.1267,-0.1329,-0.1264,-0.1261,-0.1271,-0.1158,-0.1142,-0.105,-0.1195,-0.1193,-0.1191,0,-0.1631,-0.1599,-0.1513,-0.1486,-0.1468,-0.1428,-0.1386,-0.135,-0.1317,-0.1311,-0.1281,-0.1286,-0.1229,-0.1268,-0.1187,-0.1228,-0.1202,-0.1188,-0.1185,-0.1177,-0.1221,-0.1145,-0.1022,-0.1007,-0.1171,-0.1173,-0.1174,0,-0.1556,-0.1491,-0.1431,-0.1415,-0.1382,-0.1352,-0.1336,-0.1307,-0.128,-0.1243,-0.1224,-0.118,-0.1154,-0.1118,-0.1108,-0.1138,-0.1026,-0.1065,-0.1016,-0.1016,-0.099,-0.0992,-0.0859,-0.0977,-0.0977,-0.0977,-0.0977,0,-0.1456,-0.1402,-0.1397,-0.136,-0.1299,-0.13,-0.1238,-0.1224,-0.1198,-0.1155,-0.1165,-0.1124,-0.1116,-0.1071,-0.1063,-0.0996,-0.0984,-0.0975,-0.0973,-0.0973,-0.0974,-0.0954,-0.0959,-0.0974,-0.0974,-0.0975,-0.0976,0,-0.1361,-0.1356,-0.1292,-0.1266,-0.1258,-0.1214,-0.119,-0.1153,-0.1143,-0.1088,-0.1075,-0.1058,-0.1006,-0.0995,-0.0932,-0.0927,-0.0846,-0.0851,-0.0858,-0.0857,-0.0808,-0.0812,-0.0656,-0.0634,-0.0769,-0.0767,-0.0766,0,-0.1297,-0.1257,-0.1227,-0.1202,-0.1185,-0.1143,-0.1116,-0.1114,-0.1085,-0.1045,-0.1011,-0.0962,-0.0922,-0.0838,-0.0817,-0.0768,-0.0771,-0.072,-0.0763,-0.0764,-0.0767,-0.0769,-0.0763,-0.071,-0.0709,-0.0708,-0.0707,0,-0.1182,-0.1182,-0.1145,-0.1107,-0.1075,-0.1044,-0.1014,-0.0991,-0.0984,-0.095,-0.09,-0.0869,-0.0807,-0.0755,-0.0707,-0.0686,-0.0693,-0.0694,-0.0679,-0.0678,-0.0683,-0.0677,-0.0833,-0.0697,-0.0698,-0.0699,-0.0699,-0.0699,-0.1099,-0.1064,-0.1038,-0.0995,-0.0973,-0.0945,-0.0908,-0.0894,-0.0854,-0.0805,-0.0806,-0.0749,-0.0715,-0.0651,-0.0628,-0.0581,-0.0596,-0.0576,-0.057,-0.0565,-0.0559,-0.0692,-0.0572,-0.0572,-0.0572,-0.0573,-0.0573,0,-0.0983,-0.0968,-0.0929,-0.0889,-0.0854,-0.0869,-0.0836,-0.0805,-0.0757,-0.0727,-0.0688,-0.0628,-0.0579,-0.0555,-0.0504,-0.0471,-0.0473,-0.0458,-0.0459,-0.0453,-0.055,-0.0566,-0.0457,-0.0457,-0.0457,-0.0457,-0.0457,-0.0457,-0.0919,-0.0859,-0.0855,-0.0782,-0.0766,-0.0714,-0.0694,-0.0666,-0.0642,-0.0576,-0.0536,-0.0522,-0.0493,-0.0441,-0.0394,-0.0388,-0.0368,-0.035,-0.0345,-0.0435,-0.0447,-0.0458,-0.0473,-0.0346,-0.0346,-0.0252,-0.0251,-0.0251]}]]